NOAA 16 DEB, 41401

Orbit data source: Space-Track

NOAA 16 DEB, 41401 is space debris in SSO originally from a launch on Thu, 21 Sep 2000 UTC launched from the Air Force Western Test Range (AFWTR). Debris objects in space refer to the collection of defunct objects orbiting the Earth. Examples of debris include non-operational satellites, rocket bodies, and fragments generated from explosions, collisions, or faulty payload assembly.

Loading next visibility...
Identifier
41401, 2000-055KE
Orbit
SSO
Country
Flag of USUS
Related business
Manufacturer
Unknown
Mission
Spacecraft
Bus & Motor
Unknown
Mass
Unknown
Launch date (UTC)
2000-09-21 (26 years ago)
Launch vehicle
Unknown
Launch site
Air Force Western Test Range (AFWTR)
Object type
Payload
Rocket body
Debris
Shape & HBR
Unknown shape, 0.1 m
Radar Cross Section
Medium (>0.1 m² and <1 m²)

Expand to show TLE details & history
Last TLE update: 1 day ago

TLE from 1 day ago
0 NOAA 16 DEB
1 41401U 00055KE  26262.82023979  .00001927  00000-0  84584-3 0  9999
2 41401  98.6630 296.2019 0017372 260.6060  99.3156 14.24690241546981
Epoch: 2026-09-19T19:41Z
TLE epoch observation values (Epoch: 2026-09-19T19:41:08.717Z)
Latitude
0.00003°
Longitude
2.19229°
Altitude
814.499 km
Speed
7.445 km/s
True Right ascension
19h 44m 48s
True Declination
0° 00' 00"
Sunlit
Object was in full shadow at epoch
Visualization orbit readout
Latitude
Unknown
Longitude
Unknown
Altitude
Unknown
Speed
Unknown
Apparent Right ascension
Unknown
Apparent Declination
Unknown
Sunlit
N/A
Visualization observer readout
Local Sidereal Time
15:01:33
Azimuth
Unknown
Elevation
Unknown
Doppler factor
Unknown
Orbital elements
Apogee altitude
819.166 km
Perigee altitude
794.203 km
Semi-major axis
7,184.821 km
Eccentricity
0.00174
Inclination
98.663°
RAAN
296.2019°
Arg. of periapsis
260.606°
True anomaly
99.51197°
Mean anomaly
99.3156°
Eccentric anomaly
99.41379°
Mean motion
3.56385 °/min
Orbital period
101.01 mins
BSTAR
0.00084584
Loading maneuver chart data...
Computing Atmospheric mass density...

Documentation

Showing up to 5 results
|